This is the latest recevied weather packets stored in our database for station/object PY2SDN-13. If no packets are shown the sender has not sent any weather packets the latest 10 day(s).
| Time | Temp. | Humidity | Pressure | Rain* | Wind** | Luminosity | Snow |
|---|---|---|---|---|---|---|---|
| 1777914903 | 29.44° C | 26% | 1010.6 hPa | 0 mm | - | 0 W/m² | - |
| 1777914003 | 28.33° C | 26% | 1010.7 hPa | 0 mm | - | 0 W/m² | - |
| 1777913103 | 27.78° C | 26% | 1010.8 hPa | 0 mm | - | 0 W/m² | - |
| 1777912203 | 28.89° C | 26% | 1011.3 hPa | 0 mm | - | 0 W/m² | - |
| 1777911303 | 31.11° C | 26% | 1011.3 hPa | 0 mm | - | 0 W/m² | - |
| 1777910403 | 31.67° C | 26% | 1011.5 hPa | 0 mm | - | 0 W/m² | - |
| 1777909503 | 30.56° C | 26% | 1011.8 hPa | 0 mm | - | 0 W/m² | - |
| 1777908603 | 30.56° C | 26% | 1011.9 hPa | 0 mm | - | 0 W/m² | - |
| 1777907703 | 30° C | 26% | 1012 hPa | 0 mm | - | 0 W/m² | - |
| 1777906803 | 30° C | 26% | 1012.5 hPa | 0 mm | - | 0 W/m² | - |
| 1777905903 | 31.11° C | 26% | 1012.7 hPa | 0 mm | - | 0 W/m² | - |
| 1777905003 | 29.44° C | 26% | 1012.8 hPa | 0 mm | - | 0 W/m² | - |
| 1777904103 | 27.78° C | 26% | 1012.9 hPa | 0 mm | - | 0 W/m² | - |
| 1777903203 | 28.89° C | 26% | 1013.2 hPa | 0 mm | - | 0 W/m² | - |
| 1777902303 | 26.67° C | 26% | 1013.5 hPa | 0 mm | - | 0 W/m² | - |
| 1777901403 | 26.11° C | 26% | 1013.6 hPa | 0 mm | - | 0 W/m² | - |
| 1777900504 | 28.33° C | 26% | 1013.7 hPa | 0 mm | - | 0 W/m² | - |
| 1777899604 | 28.33° C | 26% | 1013.9 hPa | 0 mm | - | 0 W/m² | - |
| 1777898704 | 28.89° C | 26% | 1013.9 hPa | 0 mm | - | 0 W/m² | - |
| 1777897804 | 28.89° C | 26% | 1013.7 hPa | 0 mm | - | 0 W/m² | - |
| 1777896904 | 28.33° C | 26% | 1013.9 hPa | 0 mm | - | 0 W/m² | - |
| 1777896004 | 29.44° C | 26% | 1013.7 hPa | 0 mm | - | 0 W/m² | - |
| 1777895104 | 29.44° C | 26% | 1013.7 hPa | 0 mm | - | 0 W/m² | - |
| 1777894204 | 27.22° C | 26% | 1013.7 hPa | 0 mm | - | 0 W/m² | - |
| 1777893304 | 25° C | 26% | 1013.4 hPa | 0 mm | - | 0 W/m² | - |
* Rain latest hour (hover to see other rain measurements)
** Current wind speed in m/s (hover to see current wind gust speed)